Weather History for Algona, IA

Change the Weather History Date:

Friday, November 23, 2012

  Actual Average Record
Temperature  
Mean Temperature 23 °F -  
Max Temperature 32 °F 39 °F 60 °F (2006)
Min Temperature 14 °F 24 °F 5 °F (2013)
Degree Days  
Heating Degree Days 42    
Moisture  
Dew Point 12 °F    
Average Humidity 64    
Maximum Humidity 79    
Minimum Humidity 51    
Precipitation  
Precipitation 0.00 in - - ()
Sea Level Pressure  
Sea Level Pressure 30.30 in    
Wind  
Wind Speed 22 mph (NW)    
Max Wind Speed 31 mph    
Max Gust Speed 43 mph    
Visibility 10 miles    
Events Snow    
Averages and records for this station are not official NWS values.
T = Trace of Precipitation, MM = Missing Value Source: NWS Daily Summary

Daily Weather History Graph

Daily Weather History Graph

Search for Another Location

Airport:

Trip Planner

Search our weather history database for the weather conditions in past years. The results will help you decide how hot, cold, wet, or windy it might be!

Date:

Astronomy

Nov. 23, 2012 Rise Set
Actual Time 7:20 AM CST 4:46 PM CST
Civil Twilight 6:48 AM CST 5:18 PM CST
Nautical Twilight 6:14 AM CST 5:52 PM CST
Astronomical Twilight 5:40 AM CST 6:26 PM CST
Moon 2:07 PM CST (11/23) 2:33 AM CST (11/23)
Length of Visible Light 10h 29m
Length of Day
9h 26m
Waxing Gibbous, 80% of the Moon is Illuminated
Nov 23
Waxing Gibbous
Nov 28
Full
Dec 6
Last Quarter
Dec 13
New
Dec 19
First Quarter

Hourly Weather History & Observations

Time (CST) Temp. Windchill Dew Point Humidity Pressure Visibility Wind Dir Wind Speed Gust Speed Precip Events Conditions
12:15 AM 32.0 °F 18.4 °F 21.2 °F 64% 30.10 in 10.0 mi NW 26.5 mph 35.7 mph N/A Snow Light Snow
12:55 AM 32.0 °F 17.6 °F 21.2 °F 64% 30.11 in 10.0 mi NW 29.9 mph 35.7 mph N/A Snow Light Snow
1:15 AM 30.2 °F 16.2 °F 21.2 °F 69% 30.12 in 10.0 mi NW 25.3 mph 36.8 mph N/A Snow Light Snow
1:35 AM 30.2 °F 15.4 °F 19.4 °F 64% 30.13 in 10.0 mi NW 28.8 mph 39.1 mph N/A Snow Light Snow
1:55 AM 30.2 °F 14.9 °F 17.6 °F 60% 30.13 in 10.0 mi NW 31.1 mph 40.3 mph N/A Snow Light Snow
2:15 AM 26.6 °F 11.1 °F 15.8 °F 64% 30.15 in 10.0 mi NW 26.5 mph 35.7 mph N/A Snow Light Snow
2:35 AM 26.6 °F 13.1 °F 15.8 °F 64% 30.16 in 10.0 mi NW 19.6 mph 27.6 mph N/A Snow Light Snow
2:55 AM 26.6 °F 12.0 °F 15.8 °F 64% 30.17 in 10.0 mi NW 23.0 mph 35.7 mph N/A Snow Light Snow
3:15 AM 26.6 °F 11.4 °F 15.8 °F 64% 30.18 in 10.0 mi NW 25.3 mph 38.0 mph N/A Snow Light Snow
3:35 AM 24.8 °F 10.0 °F 15.8 °F 69% 30.18 in 10.0 mi NW 21.9 mph 34.5 mph N/A Snow Light Snow
3:55 AM 24.8 °F 10.7 °F 15.8 °F 69% 30.18 in 10.0 mi NW 19.6 mph 28.8 mph N/A Snow Light Snow
4:15 AM 23.0 °F 8.3 °F 14.0 °F 68% 30.19 in 10.0 mi NW 19.6 mph 31.1 mph N/A Snow Light Snow
4:35 AM 23.0 °F 8.0 °F 14.0 °F 68% 30.20 in 10.0 mi NW 20.7 mph 29.9 mph N/A Snow Light Snow
4:55 AM 23.0 °F 6.9 °F 12.2 °F 63% 30.21 in 10.0 mi NW 24.2 mph 40.3 mph N/A Snow Light Snow
5:15 AM 23.0 °F 7.2 °F 12.2 °F 63% 30.22 in 10.0 mi NW 23.0 mph 34.5 mph N/A Snow Light Snow
5:35 AM 21.2 °F 6.0 °F 12.2 °F 68% 30.23 in 10.0 mi NW 19.6 mph 27.6 mph N/A Snow Light Snow
6:15 AM 21.2 °F 3.9 °F 12.2 °F 68% 30.25 in 10.0 mi NW 26.5 mph 33.4 mph N/A Snow Light Snow
6:35 AM 21.2 °F 3.9 °F 12.2 °F 68% 30.25 in 10.0 mi NW 26.5 mph 39.1 mph N/A Snow Light Snow
6:55 AM 21.2 °F 3.9 °F 12.2 °F 68% 30.26 in 10.0 mi NW 26.5 mph 36.8 mph N/A Snow Light Snow
7:15 AM 21.2 °F 4.5 °F 12.2 °F 68% 30.27 in 10.0 mi NW 24.2 mph 36.8 mph N/A Snow Light Snow
7:35 AM 21.2 °F 4.9 °F 12.2 °F 68% 30.28 in 9.0 mi NW 23.0 mph 33.4 mph N/A Snow Light Snow
7:55 AM 21.2 °F 5.2 °F 12.2 °F 68% 30.28 in 10.0 mi NNW 21.9 mph 42.6 mph N/A Snow Light Snow
8:15 AM 21.2 °F 3.5 °F 12.2 °F 68% 30.29 in 10.0 mi NW 27.6 mph 36.8 mph N/A Snow Light Snow
8:35 AM 21.2 °F 3.0 °F 12.2 °F 68% 30.30 in 10.0 mi NNW 29.9 mph 39.1 mph N/A Snow Light Snow
8:55 AM 21.2 °F 3.9 °F 12.2 °F 68% 30.31 in 9.0 mi NNW 26.5 mph 39.1 mph N/A Snow Light Snow
9:15 AM 21.2 °F 4.2 °F 12.2 °F 68% 30.31 in 7.0 mi NNW 25.3 mph 38.0 mph N/A Snow Light Snow
9:35 AM 21.2 °F 4.2 °F 12.2 °F 68% 30.32 in 9.0 mi NNW 25.3 mph 36.8 mph N/A Snow Light Snow
9:55 AM 23.0 °F 5.4 °F 12.2 °F 63% 30.32 in 10.0 mi NNW 29.9 mph 40.3 mph N/A Snow Light Snow
10:15 AM 23.0 °F 6.6 °F 12.2 °F 63% 30.33 in 10.0 mi NNW 25.3 mph 32.2 mph N/A Snow Light Snow
10:35 AM 23.0 °F 5.1 °F 12.2 °F 63% 30.34 in 10.0 mi NNW 31.1 mph 41.4 mph N/A Snow Light Snow
10:55 AM 24.8 °F 8.7 °F 12.2 °F 59% 30.34 in 10.0 mi NNW 26.5 mph 36.8 mph N/A Snow Light Snow
11:15 AM 24.8 °F 8.7 °F 12.2 °F 59% 30.34 in 10.0 mi NNW 26.5 mph 36.8 mph N/A Snow Light Snow
11:35 AM 26.6 °F 11.1 °F 12.2 °F 55% 30.34 in 10.0 mi NNW 26.5 mph 36.8 mph N/A Snow Light Snow
11:55 AM 26.6 °F 11.1 °F 12.2 °F 55% 30.34 in 10.0 mi NNW 26.5 mph 36.8 mph N/A Snow Light Snow
12:15 PM 26.6 °F 12.0 °F 12.2 °F 55% 30.34 in 10.0 mi NNW 23.0 mph 34.5 mph N/A Snow Light Snow
12:35 PM 28.4 °F 13.5 °F 12.2 °F 51% 30.34 in 10.0 mi NNW 26.5 mph 34.5 mph N/A Snow Light Snow
12:55 PM 28.4 °F 14.1 °F 12.2 °F 51% 30.34 in 10.0 mi NNW 24.2 mph 31.1 mph N/A Snow Light Snow
1:15 PM 28.4 °F 13.8 °F 12.2 °F 51% 30.34 in 10.0 mi NNW 25.3 mph 34.5 mph N/A Snow Light Snow
1:35 PM 28.4 °F 14.1 °F 12.2 °F 51% 30.34 in 10.0 mi NW 24.2 mph 34.5 mph N/A Snow Light Snow
1:55 PM 28.4 °F 15.1 °F 12.2 °F 51% 30.34 in 10.0 mi NNW 20.7 mph 31.1 mph N/A Snow Light Snow
2:15 PM 28.4 °F 15.4 °F 12.2 °F 51% 30.34 in 10.0 mi NW 19.6 mph 28.8 mph N/A Snow Light Snow
2:35 PM 28.4 °F 15.1 °F 12.2 °F 51% 30.35 in 10.0 mi NW 20.7 mph 34.5 mph N/A Snow Light Snow
2:55 PM 28.4 °F 15.1 °F 12.2 °F 51% 30.35 in 10.0 mi NW 20.7 mph 33.4 mph N/A Snow Light Snow
3:15 PM 28.4 °F 15.1 °F 12.2 °F 51% 30.35 in 10.0 mi NNW 20.7 mph 27.6 mph N/A Snow Light Snow
3:35 PM 28.4 °F 14.7 °F 12.2 °F 51% 30.35 in 10.0 mi NNW 21.9 mph - N/A Snow Light Snow
3:55 PM 26.6 °F 13.8 °F 10.4 °F 51% 30.36 in 10.0 mi NNW 17.3 mph 26.5 mph N/A Snow Light Snow
4:15 PM 26.6 °F 14.3 °F 10.4 °F 51% 30.37 in 10.0 mi NNW 16.1 mph 27.6 mph N/A   Clear
4:35 PM 24.8 °F 11.5 °F 10.4 °F 54% 30.37 in 10.0 mi NNW 17.3 mph 26.5 mph N/A Snow Light Snow
4:55 PM 24.8 °F 13.4 °F 10.4 °F 54% 30.37 in 10.0 mi NNW 12.7 mph 18.4 mph N/A   Clear
5:15 PM 23.0 °F 11.7 °F 10.4 °F 59% 30.37 in 10.0 mi NNW 11.5 mph 17.3 mph N/A   Clear
5:35 PM 23.0 °F 12.4 °F 10.4 °F 59% 30.37 in 10.0 mi NNW 10.4 mph 16.1 mph N/A   Clear
5:55 PM 23.0 °F 12.4 °F 10.4 °F 59% 30.37 in 10.0 mi NNW 10.4 mph - N/A   Clear
6:15 PM 21.2 °F 10.9 °F 10.4 °F 63% 30.37 in 10.0 mi NNW 9.2 mph - N/A   Clear
6:35 PM 21.2 °F 10.9 °F 10.4 °F 63% 30.37 in 10.0 mi NW 9.2 mph - N/A   Clear
6:55 PM 21.2 °F 12.6 °F 10.4 °F 63% 30.38 in 10.0 mi NW 6.9 mph - N/A   Clear
7:15 PM 19.4 °F 10.4 °F 10.4 °F 68% 30.37 in 10.0 mi NW 6.9 mph - N/A   Clear
7:35 PM 17.6 °F 9.3 °F 10.4 °F 73% 30.37 in 10.0 mi NW 5.8 mph - N/A   Clear
7:55 PM 17.6 °F 9.3 °F 10.4 °F 73% 30.37 in 10.0 mi NW 5.8 mph - N/A   Clear
8:15 PM 17.6 °F 8.2 °F 8.6 °F 68% 30.36 in 10.0 mi NW 6.9 mph - N/A   Clear
8:35 PM 17.6 °F 7.3 °F 10.4 °F 73% 30.36 in 10.0 mi NW 8.1 mph - N/A   Clear
8:55 PM 17.6 °F 8.2 °F 10.4 °F 73% 30.36 in 10.0 mi NW 6.9 mph - N/A   Clear
9:15 PM 17.6 °F 7.3 °F 10.4 °F 73% 30.35 in 10.0 mi NW 8.1 mph - N/A   Clear
9:35 PM 17.6 °F 8.2 °F 10.4 °F 73% 30.35 in 10.0 mi NNW 6.9 mph - N/A   Clear
9:55 PM 15.8 °F 5.1 °F 10.4 °F 79% 30.35 in 10.0 mi NNW 8.1 mph - N/A   Clear
10:15 PM 15.8 °F 6.1 °F 8.6 °F 73% 30.35 in 10.0 mi NW 6.9 mph - N/A   Clear
10:35 PM 15.8 °F 6.1 °F 8.6 °F 73% 30.34 in 10.0 mi NW 6.9 mph - N/A   Clear
10:55 PM 14.0 °F 2.9 °F 8.6 °F 79% 30.34 in 10.0 mi NW 8.1 mph - N/A   Clear
11:15 PM 14.0 °F 2.0 °F 8.6 °F 79% 30.34 in 10.0 mi NW 9.2 mph - N/A   Clear
11:35 PM 14.0 °F 3.9 °F 8.6 °F 79% 30.35 in 10.0 mi NW 6.9 mph - N/A   Clear
11:55 PM 14.0 °F 3.9 °F 8.6 °F 79% 30.34 in 10.0 mi NW 6.9 mph - N/A   Clear